This demonstration page uses our WeatherBlox Daily Observations layout. Learn more.

Left ArrowRight Arrow

47.50024, -111.30081

Hourly Observations for May 2, 2017

Temp ( °F °C ) Dew Point ( °F °C ) Humidity (%) Winds ( mph kmh ) Pressure ( in mb ) Visibility ( mi km ) Precip ( " mm )
12:30 am 00:30 Cloudy with Light Rain 43 6 37 3 81 81 SE 6 9 29.97 1015 9 14 0.00 0.00
12:53 am 00:53 Cloudy 41 5 37 2.8 86 86 ESE 6 9 30.02 1017 10 16 0.02 0.51
1:53 am 01:53 Cloudy 41 5 38 3.3 89 89 E 6 9 30.01 1016 10 16 0.00 0.03
2:11 am 02:11 Cloudy 41 5 38 3.3 89 89 Calm 30.00 1016 10 16 0.00 0.00
2:18 am 02:18 Cloudy 41 5 38 3.3 89 89 ESE 5 7 30.00 1016 10 16 0.00 0.00
2:53 am 02:53 Cloudy 40 4.4 37 2.8 89 89 E 5 7 30.00 1016 10 16 0.00 0.00
3:53 am 03:53 Cloudy with Light Rain 41 5 38 3.3 89 89 E 3 6 30.00 1016 10 16 0.00 0.03
4:53 am 04:53 Cloudy with Light Rain 40 4.4 36 2.2 86 86 W 5 7 30.00 1016 10 16 0.00 0.03
5:53 am 05:53 Cloudy 38 3.3 37 2.8 97 97 W 5 7 30.01 1016 10 16 0.00 0.03
6:53 am 06:53 Cloudy 39 3.9 37 2.8 93 93 SW 5 7 30.02 1017 10 16 0.00 0.00
7:53 am 07:53 Cloudy 43 6.1 37 2.8 80 80 WSW 5 7 30.04 1017 10 16 0.00 0.00
8:53 am 08:53 Cloudy 44 6.7 36 2.2 73 73 WSW 8 13 30.05 1018 10 16 0.00 0.03
9:53 am 09:53 Cloudy 46 7.8 35 1.7 66 66 W 8 13 30.06 1018 10 16 0.00 0.00
10:53 am 10:53 Partly Cloudy 49 9.4 32 0 52 52 NW 15 24 30.05 1018 10 16 0.00 0.00
11:53 am 11:53 Cloudy 50 10 28 -2.2 43 43 WNW 10 17 30.08 1019 10 16 0.00 0.00
12:53 pm 12:53 Cloudy 50 10 27 -2.8 41 41 NW 12 19 30.09 1019 10 16 0.00 0.00
1:53 pm 13:53 Cloudy 51 10.6 27 -2.8 39 39 WNW 14 22 30.09 1019 10 16 0.00 0.00
2:53 pm 14:53 Cloudy 55 12.8 27 -2.8 34 34 W 14 22 30.09 1019 10 16 0.00 0.00
3:53 pm 15:53 Cloudy 54 12.2 25 -3.9 33 33 WNW 22 35 30.09 1019 10 16 0.00 0.00
4:53 pm 16:53 Cloudy 54 12.2 26 -3.3 34 34 NNW 12 19 30.11 1020 10 16 0.00 0.00
5:23 pm 17:23 Cloudy 55 12.8 23 -5 29 29 W 16 26 30.03 1017 10 16 0.00 0.00
5:53 pm 17:53 Mostly Cloudy 56 13.3 23 -5 28 28 W 18 30 30.11 1020 10 16 0.00 0.00
6:53 pm 18:53 Mostly Cloudy 54 12.2 23 -5 30 30 WNW 17 28 30.13 1020 10 16 0.00 0.00
7:47 pm 19:47 Cloudy 48 9 34 1 58 58 NE 17 28 30.12 1020 10 16 0.00 0.00
7:53 pm 19:53 Cloudy 48 8.9 35 1.7 61 61 NE 13 20 30.17 1022 10 16 0.00 0.00
8:00 pm 20:00 Cloudy 48 9 34 1 58 58 NE 9 15 30.12 1020 10 16 0.00 0.00
8:53 pm 20:53 Clear 42 5.6 32 0 68 68 NE 6 9 30.22 1023 10 16 0.00 0.00
9:53 pm 21:53 Mostly Clear 42 5.6 33 0.6 71 71 E 3 6 30.24 1024 10 16 0.00 0.00
10:53 pm 22:53 Clear 39 3.9 32 0 76 76 Calm 30.25 1024 10 16 0.00 0.00
11:53 pm 23:53 Clear 34 1.1 31 -0.6 89 89 SSW 7 11 30.27 1025 10 16 0.00 0.00

Powered by AerisWeather